#timestamp,LO_Frequency,Hit,StdDev 
1562187615.8,286046998.6,N
1562187635.7,286046999.8,N
1562187655.5,286047002.5,N
1562187675.4,286047002.5,N
1562187695.2,286047002.5,N
1562187715.0,286047002.7,N
1562187715.9,286047002.7,N
1562187735.8,286047002.3,N
1562187755.6,286047001.8,N
1562187775.5,286047001.9,N
1562187795.3,286047001.6,N
1562187815.1,286047004.4,N
1562187835.9,286047004.1,N
1562187855.7,286047004.2,N
1562187875.5,286047001.3,N
1562187895.4,286047002.0,N
1562187915.2,286047002.5,N
1562187935.1,286047002.5,N
1562187936.0,286047002.5,N
1562187955.8,286047001.4,N
1562187975.6,286047001.5,N
1562187995.5,286047001.8,N
1562188015.3,286047002.0,N
1562188035.2,286047002.5,N
1562188055.9,286047002.7,N
1562188075.7,286046999.8,N
1562188095.6,286047000.6,N
1562188115.4,286047000.3,N
1562188135.3,286047000.0,N
1562188155.1,286047001.1,N
1562188156.0,286047001.1,N
1562188175.8,286047001.1,N
1562188195.7,286047000.9,N
1562188215.5,286047001.2,N
1562188235.4,286046998.4,N
1562188255.2,286046998.9,N
1562188275.1,286046998.5,N
1562188276.0,286046998.5,N
1562188295.8,286046998.4,N
1562188315.7,286046999.1,N
1562188335.5,286046999.0,N
1562188355.3,286046999.5,N
1562188375.2,286046997.0,N
1562188395.9,286046996.6,N
1562188415.7,286046997.2,N
1562188435.6,286046995.0,N
1562188455.4,286046997.5,N
1562188475.3,286046995.1,N
1562188495.1,286046995.0,N
1562188515.8,286046997.9,N
1562188535.7,286046997.3,N
1562188555.5,286046999.5,N
1562188575.4,286046998.2,N
1562188595.2,286046998.4,N
1562188615.0,286047001.2,N
1562188615.9,286047001.2,N
1562188635.8,286047000.7,N
1562188655.6,286047000.6,N
1562188675.4,286047001.1,N
1562188695.3,286046998.8,N
1562188715.1,286046999.2,N
1562188735.9,286046997.4,N
1562188755.7,286046996.7,N
1562188775.5,286046999.4,N
1562188795.4,286046999.3,N
1562188815.2,286046999.5,N
1562188835.1,286046999.0,N
1562188836.0,286046999.0,N
1562188855.8,286046999.0,N
1562188875.6,286046998.8,N
1562188895.5,286046999.0,N
1562188915.3,286046996.9,N
1562188935.1,286046998.9,N
1562188955.9,286046998.9,N
1562188975.7,286046997.0,N
1562188995.6,286046997.4,N
1562189015.4,286046997.6,N
1562189035.2,286046998.5,N
1562189055.1,286046994.9,Y
1562189056.0,286046994.9,P
1562189075.8,286046999.3,N
1562189095.7,286046998.6,N
1562189115.5,286046999.3,N
1562189135.3,286047002.8,N
1562189155.2,286047000.0,N
1562189175.9,286047000.7,N
1562189195.7,286047001.0,N
1562189215.6,286047001.1,N
1562189235.4,286046999.3,N
1562189255.3,286046996.5,N
1562189275.1,286046999.4,N
1562189276.0,286046999.4,N
1562189295.8,286046998.8,N
1562189315.7,286047001.0,N
1562189335.5,286047001.0,N
1562189355.3,286047000.5,N
1562189375.2,286047000.3,N
1562189395.0,286047002.3,N
1562189395.9,286047002.3,N
1562189415.8,286047000.9,N
1562189435.6,286046998.4,N
1562189455.4,286047001.0,N
1562189475.3,286047000.6,N
1562189495.1,286047000.2,N
1562189515.9,286047000.4,N
1562189535.7,286047000.2,N
1562189555.5,286046999.9,N
1562189575.4,286047000.7,N
1562189595.2,286046999.8,N
1562189615.0,286046999.9,N
1562189615.9,286046999.9,N
1562189635.8,286046999.9,N
1562189655.6,286047002.1,N
1562189675.5,286047001.8,N
1562189695.3,286047002.1,N
1562189715.1,286047003.9,Y
1562189735.9,286047002.6,P
1562189755.7,286046999.7,N
1562189775.6,286047000.3,N
1562189795.4,286047000.3,N
1562189815.2,286047002.7,N
1562189835.1,286046999.9,N
1562189866.0,286046999.9,E
1562189875.0,286047000.1,N
1562189875.9,286047000.1,P
1562189895.8,286047000.4,P
1562189915.6,286047002.7,Y
1562189935.4,286047000.3,P
1562189955.3,286046998.3,P
1562189975.1,286046998.7,N
1562189995.9,286046998.2,N
1562190015.7,286047000.2,N
1562190035.5,286047000.1,N
1562190055.4,286047002.4,N
1562190075.2,286046999.8,N
1562190095.0,286047002.3,N
1562190095.9,286047002.3,N
1562190115.8,286047001.3,N
1562190135.6,286046999.7,N
1562190155.5,286046999.8,N
1562190175.3,286047002.8,N
1562190195.1,286047002.2,N
1562190215.9,286047000.2,N
1562190235.7,286046999.8,N
1562190255.6,286047000.1,N
1562190275.4,286047000.1,N
1562190295.2,286047002.3,N
1562190315.1,286047002.1,N
1562190316.0,286047002.1,N
1562190335.8,286047001.7,N
1562190355.6,286047001.5,N
1562190375.5,286047001.8,N
1562190395.3,286047004.4,Y
1562190415.2,286047001.8,P
1562190435.0,286047002.5,P
1562190435.9,286047002.5,P
1562190455.7,286047002.1,N
1562190475.6,286047001.7,N
1562190495.4,286047002.1,Y
1562190515.3,286047000.7,P
1562190535.1,286046999.9,N
1562190555.8,286047000.3,N
1562190575.7,286047001.2,N
1562190595.5,286047000.6,N
1562190615.4,286047000.6,N
1562190635.2,286046998.3,N
1562190655.0,286047000.7,N
1562190655.9,286047000.7,N
1562190675.8,286046998.7,N
1562190695.6,286046998.9,N
1562190715.4,286046998.5,N
1562190735.3,286047000.3,N
1562190755.1,286046999.9,N
1562190775.9,286047000.0,N
1562190795.7,286047000.0,N
1562190815.5,286047002.1,N
1562190835.4,286046999.8,N
1562190855.2,286047001.0,N
1562190875.1,286047000.6,N
1562190876.0,286047000.6,N
1562190895.8,286047002.8,N
1562190915.6,286046999.8,N
1562190935.5,286047000.4,N
1562190955.3,286047000.0,N
1562190975.1,286047002.5,N
1562190995.9,286047000.2,N
1562191015.7,286047002.8,N
1562191035.6,286046999.9,N
1562191055.4,286047000.0,N
1562191075.2,286047002.0,N
1562191095.1,286047002.8,N
1562191096.0,286047002.8,N
1562191115.8,286047002.7,N
1562191135.7,286047002.0,N
1562191155.5,286046999.9,N
1562191175.3,286047000.5,N
1562191195.2,286047000.5,N
